| time (UTC) | temp C | wind direction | speed KPH | gust KPH | rain 1hr cm | rain 24hr cm | rain mn cm | humidity % | barometer mb |
| 20260505070130 | 11 | 348 | 0.0 | 1.6 | 0.08 | 0.41 | 0.00 | 88 | 998.1 |
| 20260505065630 | 11 | 348 | 0.0 | 3.2 | 0.10 | 0.41 | 0.41 | 88 | 998.0 |
| 20260505065130 | 10 | 348 | 1.6 | 4.8 | 0.13 | 0.41 | 0.41 | 88 | 998.0 |
| 20260505064630 | 10 | 350 | 1.6 | 4.8 | 0.15 | 0.41 | 0.41 | 88 | 997.9 |
| 20260505063624 | 10 | 355 | 0.0 | 4.8 | 0.15 | 0.38 | 0.38 | 88 | 997.7 |
| 20260505063117 | 11 | 0 | 0.0 | 3.2 | 0.18 | 0.38 | 0.38 | 88 | 997.8 |
| 20260505062612 | 11 | 5 | 0.0 | 0.0 | 0.18 | 0.38 | 0.38 | 87 | 997.6 |
| 20260505062106 | 11 | 5 | 0.0 | 1.6 | 0.20 | 0.38 | 0.38 | 87 | 997.6 |
| 20260505061600 | 11 | 5 | 0.0 | 1.6 | 0.18 | 0.36 | 0.38 | 87 | 997.6 |
| 20260505061057 | 11 | 5 | 0.0 | 1.6 | 0.20 | 0.36 | 0.36 | 87 | 997.6 |
| 20260505060557 | 11 | 5 | 0.0 | 1.6 | 0.20 | 0.36 | 0.36 | 87 | 997.6 |
| 20260505060056 | 11 | 5 | 0.0 | 1.6 | 0.20 | 0.33 | 0.33 | 87 | 997.7 |
| 20260505055553 | 11 | 5 | 0.0 | 3.2 | 0.18 | 0.30 | 0.30 | 87 | 997.8 |
| 20260505055054 | 11 | 5 | 0.0 | 3.2 | 0.15 | 0.28 | 0.28 | 87 | 997.9 |
| 20260505054053 | 11 | 337 | 0.0 | 3.2 | 0.13 | 0.23 | 0.25 | 87 | 997.9 |
| 20260505053553 | 11 | 315 | 0.0 | 3.2 | 0.15 | 0.23 | 0.23 | 87 | 997.9 |
| 20260505053051 | 11 | 298 | 0.0 | 3.2 | 0.15 | 0.20 | 0.20 | 87 | 997.8 |
| 20260505052550 | 11 | 0 | 0.0 | 1.6 | 0.13 | 0.18 | 0.20 | 87 | 997.7 |
| 20260505051548 | 11 | 0 | 0.0 | 1.6 | 0.15 | 0.18 | 0.18 | 87 | 997.6 |
| 20260505051045 | 11 | 0 | 0.0 | 1.6 | 0.13 | 0.15 | 0.15 | 86 | 997.7 |
| 20260505050546 | 11 | 0 | 0.0 | 1.6 | 0.15 | 0.15 | 0.15 | 86 | 997.8 |
| 20260505041522 | 12 | 338 | 0.0 | 1.6 | 0.03 | 0.03 | 0.03 | 85 | 998.3 |
| 20260505041008 | 12 | 338 | 1.6 | 4.8 | 0.03 | 0.03 | 0.03 | 85 | 998.2 |
| 20260505040502 | 12 | 338 | 1.6 | 4.8 | 0.00 | 0.00 | 0.00 | 85 | 998.1 |
| 20260505035955 | 12 | 345 | 0.0 | 6.4 | 0.00 | 0.00 | 0.00 | 85 | 998.0 |
| 20260505035450 | 12 | 330 | 0.0 | 6.4 | 0.00 | 0.00 | 0.00 | 85 | 997.9 |
| 20260505034944 | 12 | 350 | 0.0 | 3.2 | 0.00 | 0.00 | 0.00 | 85 | 997.7 |
| 20260505034438 | 12 | 350 | 0.0 | 4.8 | 0.00 | 0.00 | 0.00 | 85 | 997.7 |
| 20260505033426 | 12 | 327 | 1.6 | 6.4 | 0.00 | 0.00 | 0.00 | 84 | 997.3 |
| 20260505032920 | 12 | 333 | 0.0 | 4.8 | 0.00 | 0.00 | 0.00 | 84 | 997.2 |
| 20260505032414 | 12 | 331 | 0.0 | 4.8 | 0.00 | 0.00 | 0.00 | 84 | 997.2 |
| 20260505031908 | 12 | 339 | 1.6 | 4.8 | 0.00 | 0.00 | 0.00 | 84 | 997.1 |
| 20260505031402 | 12 | 284 | 1.6 | 8.0 | 0.00 | 0.00 | 0.00 | 84 | 997.1 |
| 20260505030855 | 12 | 347 | 1.6 | 8.0 | 0.00 | 0.00 | 0.00 | 84 | 997.2 |
| 20260505030350 | 12 | 258 | 1.6 | 8.0 | 0.00 | 0.00 | 0.00 | 84 | 997.1 |
| 20260505025844 | 12 | 342 | 3.2 | 14.5 | 0.00 | 0.00 | 0.00 | 83 | 997.2 |
| 20260505025338 | 12 | 331 | 3.2 | 14.5 | 0.00 | 0.00 | 0.00 | 83 | 997.1 |
| 20260505024832 | 12 | 347 | 1.6 | 6.4 | 0.00 | 0.00 | 0.00 | 83 | 997.1 |
| 20260505024326 | 12 | 329 | 1.6 | 6.4 | 0.00 | 0.00 | 0.00 | 82 | 997.2 |
| 20260505023821 | 13 | 333 | 0.0 | 4.8 | 0.00 | 0.00 | 0.00 | 82 | 997.2 |
| 20260505023314 | 13 | 275 | 1.6 | 4.8 | 0.00 | 0.00 | 0.00 | 81 | 997.2 |
| 20260505022808 | 13 | 316 | 1.6 | 6.4 | 0.00 | 0.00 | 0.00 | 81 | 997.3 |
| 20260505022301 | 13 | 339 | 1.6 | 6.4 | 0.00 | 0.00 | 0.00 | 80 | 997.2 |
| 20260505021756 | 13 | 270 | 1.6 | 8.0 | 0.00 | 0.00 | 0.00 | 79 | 997.2 |
| 20260505021250 | 13 | 264 | 1.6 | 9.7 | 0.00 | 0.00 | 0.00 | 79 | 997.1 |
| 20260505020745 | 13 | 331 | 1.6 | 9.7 | 0.00 | 0.00 | 0.00 | 78 | 997.1 |
| 20260505020238 | 13 | 331 | 1.6 | 6.4 | 0.00 | 0.00 | 0.00 | 78 | 997.1 |
| 20260505015732 | 13 | 355 | 1.6 | 4.8 | 0.00 | 0.00 | 0.00 | 78 | 997.2 |
| 20260505015225 | 13 | 347 | 1.6 | 6.4 | 0.00 | 0.00 | 0.00 | 77 | 997.3 |
| 20260505014722 | 13 | 343 | 1.6 | 6.4 | 0.00 | 0.00 | 0.00 | 76 | 997.3 |
| 20260505014214 | 13 | 300 | 1.6 | 9.7 | 0.00 | 0.00 | 0.00 | 75 | 997.4 |
| 20260505013708 | 13 | 286 | 4.8 | 16.1 | 0.00 | 0.00 | 0.00 | 75 | 997.6 |
| 20260505013201 | 13 | 0 | 4.8 | 16.1 | 0.00 | 0.00 | 0.00 | 76 | 997.6 |
| 20260505012150 | 13 | 259 | 1.6 | 11.3 | 0.00 | 0.00 | 0.00 | 80 | 997.5 |
| 20260505011644 | 13 | 259 | 1.6 | 6.4 | 0.00 | 0.00 | 0.00 | 82 | 997.4 |
| 20260505011138 | 13 | 301 | 1.6 | 4.8 | 0.00 | 0.00 | 0.00 | 82 | 997.4 |
| 20260505010638 | 13 | 252 | 3.2 | 11.3 | 0.00 | 0.00 | 0.00 | 81 | 997.5 |
| 20260505010136 | 13 | 208 | 3.2 | 11.3 | 0.00 | 0.00 | 0.00 | 81 | 997.6 |
| 20260505005635 | 13 | 212 | 1.6 | 9.7 | 0.00 | 0.00 | 0.00 | 81 | 997.6 |
| 20260505005133 | 13 | 210 | 3.2 | 11.3 | 0.00 | 0.00 | 0.00 | 81 | 997.6 |
| 20260505004633 | 13 | 310 | 3.2 | 11.3 | 0.00 | 0.00 | 0.00 | 81 | 997.6 |
| 20260505004132 | 13 | 199 | 3.2 | 11.3 | 0.00 | 0.00 | 0.00 | 81 | 997.5 |
| 20260505003632 | 14 | 227 | 3.2 | 11.3 | 0.00 | 0.00 | 0.00 | 80 | 997.7 |
| 20260505003130 | 14 | 273 | 3.2 | 11.3 | 0.00 | 0.00 | 0.00 | 80 | 997.7 |
| 20260505002629 | 14 | 263 | 3.2 | 11.3 | 0.00 | 0.00 | 0.00 | 80 | 997.8 |
| 20260505001128 | 14 | 279 | 1.6 | 6.4 | 0.00 | 0.00 | 0.00 | 80 | 997.7 |
| 20260505000628 | 14 | 242 | 1.6 | 4.8 | 0.00 | 0.00 | 0.00 | 80 | 997.7 |
| 20260505000126 | 14 | 243 | 1.6 | 6.4 | 0.00 | 0.00 | 0.00 | 79 | 997.7 |
| 20260504235626 | 14 | 238 | 3.2 | 8.0 | 0.00 | 0.00 | 0.00 | 79 | 997.7 |
| 20260504235126 | 14 | 213 | 3.2 | 9.7 | 0.00 | 0.00 | 0.00 | 79 | 997.7 |
| 20260504234626 | 14 | 296 | 3.2 | 9.7 | 0.00 | 0.00 | 0.00 | 80 | 997.6 |
| 20260504234126 | 14 | 208 | 3.2 | 8.0 | 0.00 | 0.00 | 0.00 | 80 | 997.7 |
| 20260504233621 | 14 | 205 | 4.8 | 12.9 | 0.00 | 0.00 | 0.00 | 79 | 997.7 |
| 20260504233121 | 14 | 267 | 4.8 | 12.9 | 0.00 | 0.00 | 0.00 | 79 | 997.6 |
| 20260504231121 | 15 | 202 | 3.2 | 12.9 | 0.00 | 0.00 | 0.00 | 80 | 997.6 |
| 20260504230620 | 15 | 273 | 4.8 | 12.9 | 0.00 | 0.00 | 0.00 | 80 | 997.6 |
| 20260504230120 | 15 | 226 | 4.8 | 12.9 | 0.00 | 0.00 | 0.00 | 79 | 997.6 |
| 20260504225621 | 15 | 269 | 4.8 | 12.9 | 0.00 | 0.00 | 0.00 | 79 | 997.5 |
| 20260504225121 | 15 | 250 | 4.8 | 12.9 | 0.00 | 0.00 | 0.00 | 78 | 997.5 |
| 20260504224620 | 15 | 217 | 4.8 | 9.7 | 0.00 | 0.00 | 0.00 | 78 | 997.6 |
| 20260504224121 | 15 | 197 | 3.2 | 9.7 | 0.00 | 0.00 | 0.00 | 77 | 997.6 |
| 20260504223120 | 15 | 230 | 4.8 | 12.9 | 0.00 | 0.00 | 0.00 | 76 | 997.8 |
| 20260504222622 | 15 | 197 | 4.8 | 11.3 | 0.00 | 0.00 | 0.00 | 75 | 997.7 |
| 20260504222120 | 16 | 194 | 4.8 | 11.3 | 0.00 | 0.00 | 0.00 | 74 | 997.7 |
| 20260504221622 | 16 | 202 | 3.2 | 6.4 | 0.00 | 0.00 | 0.00 | 73 | 997.8 |
| 20260504221115 | 16 | 246 | 4.8 | 9.7 | 0.00 | 0.00 | 0.00 | 73 | 997.9 |
| 20260504220610 | 17 | 254 | 4.8 | 9.7 | 0.00 | 0.00 | 0.00 | 73 | 997.9 |
| 20260504220104 | 17 | 202 | 4.8 | 9.7 | 0.00 | 0.00 | 0.00 | 73 | 997.8 |
| 20260504215558 | 17 | 213 | 4.8 | 12.9 | 0.00 | 0.00 | 0.00 | 73 | 997.8 |
| 20260504215058 | 16 | 273 | 4.8 | 12.9 | 0.00 | 0.00 | 0.00 | 74 | 997.9 |
| 20260504214557 | 16 | 215 | 4.8 | 11.3 | 0.00 | 0.00 | 0.00 | 76 | 997.9 |
| 20260504214058 | 16 | 261 | 6.4 | 12.9 | 0.00 | 0.00 | 0.00 | 75 | 997.8 |
| 20260504213555 | 16 | 247 | 6.4 | 14.5 | 0.00 | 0.00 | 0.00 | 74 | 997.9 |
| 20260504213054 | 16 | 225 | 4.8 | 14.5 | 0.00 | 0.00 | 0.00 | 73 | 997.8 |
| 20260504212556 | 16 | 276 | 4.8 | 11.3 | 0.00 | 0.00 | 0.00 | 75 | 997.9 |
| 20260504212054 | 16 | 260 | 4.8 | 11.3 | 0.00 | 0.00 | 0.00 | 75 | 997.9 |
| 20260504211554 | 16 | 232 | 4.8 | 11.3 | 0.00 | 0.00 | 0.00 | 75 | 998.0 |
| 20260504211055 | 16 | 224 | 4.8 | 11.3 | 0.00 | 0.00 | 0.00 | 76 | 997.9 |
| 20260504210051 | 16 | 221 | 4.8 | 14.5 | 0.00 | 0.00 | 0.00 | 75 | 997.8 |
| 20260504205552 | 16 | 227 | 4.8 | 12.9 | 0.00 | 0.00 | 0.00 | 75 | 997.9 |
| 20260504205051 | 16 | 207 | 4.8 | 12.9 | 0.00 | 0.00 | 0.00 | 74 | 998.0 |
| 20260504204051 | 16 | 229 | 6.4 | 11.3 | 0.00 | 0.00 | 0.00 | 74 | 998.1 |
| 20260504203552 | 15 | 215 | 6.4 | 12.9 | 0.00 | 0.00 | 0.00 | 76 | 998.1 |
| 20260504203051 | 15 | 237 | 6.4 | 12.9 | 0.00 | 0.00 | 0.00 | 75 | 998.0 |
| 20260504202552 | 16 | 210 | 6.4 | 12.9 | 0.00 | 0.00 | 0.00 | 74 | 998.0 |
| 20260504202046 | 16 | 222 | 6.4 | 12.9 | 0.00 | 0.00 | 0.00 | 72 | 997.9 |
| 20260504201548 | 16 | 284 | 4.8 | 12.9 | 0.00 | 0.00 | 0.00 | 72 | 997.9 |
| 20260504201048 | 16 | 213 | 6.4 | 12.9 | 0.00 | 0.00 | 0.00 | 71 | 997.8 |
| 20260504200547 | 16 | 181 | 4.8 | 14.5 | 0.00 | 0.00 | 0.00 | 70 | 997.8 |
| 20260504200047 | 16 | 268 | 4.8 | 17.7 | 0.00 | 0.00 | 0.00 | 71 | 997.9 |
| 20260504195549 | 16 | 249 | 4.8 | 17.7 | 0.00 | 0.00 | 0.00 | 69 | 998.0 |
| 20260504195046 | 16 | 238 | 4.8 | 11.3 | 0.00 | 0.00 | 0.00 | 69 | 998.0 |
| 20260504194547 | 16 | 210 | 6.4 | 11.3 | 0.00 | 0.00 | 0.00 | 70 | 998.1 |
| 20260504194048 | 16 | 236 | 6.4 | 12.9 | 0.00 | 0.00 | 0.00 | 70 | 998.1 |
| 20260504193042 | 16 | 204 | 6.4 | 16.1 | 0.00 | 0.00 | 0.00 | 66 | 998.0 |
| 20260504192542 | 16 | 258 | 6.4 | 14.5 | 0.00 | 0.00 | 0.00 | 65 | 997.9 |
| 20260504192042 | 17 | 264 | 6.4 | 14.5 | 0.00 | 0.00 | 0.00 | 67 | 998.0 |
| 20260504191540 | 17 | 244 | 6.4 | 12.9 | 0.00 | 0.00 | 0.00 | 67 | 998.0 |
| 20260504191040 | 17 | 182 | 4.8 | 12.9 | 0.00 | 0.00 | 0.00 | 66 | 998.1 |
| 20260504190540 | 17 | 242 | 6.4 | 16.1 | 0.00 | 0.00 | 0.00 | 66 | 998.1 |
| 20260504190039 | 17 | 230 | 6.4 | 16.1 | 0.00 | 0.00 | 0.00 | 65 | 998.2 |
| 20260504185537 | 17 | 264 | 6.4 | 16.1 | 0.00 | 0.00 | 0.00 | 67 | 998.1 |
| 20260504185035 | 17 | 260 | 6.4 | 16.1 | 0.00 | 0.00 | 0.00 | 69 | 998.1 |
| 20260504184533 | 16 | 271 | 6.4 | 12.9 | 0.00 | 0.00 | 0.00 | 70 | 998.1 |
| 20260504184032 | 16 | 277 | 4.8 | 11.3 | 0.00 | 0.00 | 0.00 | 68 | 998.1 |
| 20260504183031 | 16 | 265 | 4.8 | 16.1 | 0.00 | 0.00 | 0.00 | 69 | 998.1 |
| 20260504182530 | 16 | 198 | 6.4 | 14.5 | 0.00 | 0.00 | 0.00 | 69 | 998.1 |
| 20260504182030 | 16 | 242 | 6.4 | 14.5 | 0.00 | 0.00 | 0.00 | 71 | 998.0 |
| 20260504181530 | 16 | 273 | 6.4 | 12.9 | 0.00 | 0.00 | 0.00 | 70 | 998.0 |
| 20260504181029 | 16 | 240 | 4.8 | 12.9 | 0.00 | 0.00 | 0.00 | 71 | 997.9 |
| 20260504180526 | 16 | 196 | 4.8 | 9.7 | 0.00 | 0.00 | 0.00 | 69 | 997.9 |
| 20260504180028 | 16 | 223 | 4.8 | 9.7 | 0.00 | 0.00 | 0.00 | 69 | 997.9 |
| 20260504175524 | 16 | 248 | 4.8 | 11.3 | 0.00 | 0.00 | 0.00 | 70 | 998.0 |
| 20260504175024 | 16 | 236 | 4.8 | 11.3 | 0.00 | 0.00 | 0.00 | 70 | 998.0 |
| 20260504174525 | 16 | 292 | 3.2 | 9.7 | 0.00 | 0.00 | 0.00 | 71 | 997.9 |
| 20260504174025 | 16 | 304 | 4.8 | 9.7 | 0.00 | 0.00 | 0.00 | 73 | 997.8 |
| 20260504173525 | 16 | 207 | 4.8 | 11.3 | 0.00 | 0.00 | 0.00 | 72 | 997.8 |
| 20260504173023 | 16 | 215 | 6.4 | 12.9 | 0.00 | 0.00 | 0.00 | 74 | 997.8 |
| 20260504172522 | 16 | 225 | 6.4 | 12.9 | 0.00 | 0.00 | 0.00 | 74 | 997.7 |
| 20260504172022 | 15 | 184 | 4.8 | 9.7 | 0.00 | 0.00 | 0.00 | 76 | 997.8 |
| 20260504170521 | 15 | 168 | 4.8 | 11.3 | 0.00 | 0.00 | 0.00 | 79 | 997.8 |
| 20260504160427 | 13 | 270 | 1.6 | 4.8 | 0.00 | 0.00 | 0.00 | 86 | 997.5 |
| 20260504150820 | 12 | 238 | 0.0 | 0.0 | 0.00 | 0.00 | 0.00 | 89 | 997.5 |
| 20260504150315 | 12 | 239 | 0.0 | 0.0 | 0.00 | 0.00 | 0.00 | 90 | 997.5 |
| 20260504141214 | 11 | 205 | 0.0 | 0.0 | 0.00 | 0.00 | 0.00 | 89 | 997.4 |
| 20260504140709 | 11 | 205 | 0.0 | 0.0 | 0.00 | 0.00 | 0.00 | 89 | 997.3 |
| 20260504140203 | 11 | 205 | 0.0 | 0.0 | 0.00 | 0.00 | 0.00 | 89 | 997.3 |
| 20260504130557 | 11 | 206 | 0.0 | 0.0 | 0.00 | 0.00 | 0.00 | 88 | 996.9 |
| 20260504110455 | 11 | 260 | 0.0 | 1.6 | 0.00 | 0.00 | 0.00 | 87 | 996.8 |
| 20260504100444 | 11 | 260 | 0.0 | 4.8 | 0.00 | 0.00 | 0.00 | 87 | 996.7 |
| 20260504081937 | 12 | 250 | 3.2 | 12.9 | 0.00 | 0.00 | 0.00 | 87 | 997.0 |
| 20260504081435 | 12 | 227 | 1.6 | 6.4 | 0.00 | 0.00 | 0.00 | 87 | 997.0 |